Regional Weather Roundup
Issued by NWS Spokane, WA

Home | Current Version | Previous Version | Text Only | Print | Product List | Glossary On
Versions: 1 2 3 4 5 6 7 8 9 10 11 12 13 14 15 16 17 18 19 20 21 22 23 24 25 26 27 28 29 30 31 32 33 34 35 36 37 38 39 40 41 42 43 44 45 46 47 48 49 50
000
NZUS01 KOTX 031210
RWROTX
EASTERN WASHINGTON/NORTHERN IDAHO ROUNDUP
NATIONAL WEATHER SERVICE, SPOKANE WA
500 AM PDT FRI JUL 03 2015

Note: "fair" indicated few or no clouds below 12,000 feet with no
significant weather and/or obstructions to visibility.

...NORTHEAST WASHINGTON AND NORTHERN IDAHO PANHANDLE...

CITY           SKY/WX    TMP DP  RH WIND       PRES   REMARKS
SPOKANE INTL   CLOUDY    69  45  41 CALM      29.92R
SPOKANE DOWNTO CLEAR     66  53  63 E3        29.91S
COEUR D ALENE  CLEAR     59  48  67 E6        29.92S
DEER PARK      CLEAR     58  48  69 MISG      29.92S
SANDPOINT      CLEAR     54  48  82 CALM      29.94R
BONNERS FERRY  FAIR      57  48  72 CALM      29.95S

...SOUTHEAST WASHINGTON AND SOUTHERN IDAHO PANHANDLE...

CITY           SKY/WX    TMP DP  RH WIND       PRES   REMARKS
WALLA WALLA    CLEAR     80  47  31 S10       29.87R
PULLMAN/MOSCOW CLEAR     56  48  74 CALM      29.95R
LEWISTON       CLEAR     72  48  42 NE3       29.88R
LOWELL           N/A     59  50  72 NW5       29.98R

...COLUMBIA BASIN...

CITY           SKY/WX    TMP DP  RH WIND       PRES   REMARKS
EPHRATA        CLEAR     78  49  35 N10       29.84S
MOSES LAKE     CLEAR     65  51  60 NE3       29.85R
TRI CITIES     CLEAR     66  59  78 CALM      29.83R
HERMISTON      CLEAR     64  52  64 E6        29.84R
PENDLETON      CLEAR     68  43  40 SE9       29.90R

...EAST SLOPES CASCADES...

CITY           SKY/WX    TMP DP  RH WIND       PRES   REMARKS
THE DALLES     CLEAR     74  55  51 W6        29.85R
YAKIMA         CLEAR     79  41  25 NW9G21    29.88R
ELLENSBURG     CLEAR     75  47  36 NW20      29.91S
WENATCHEE      CLEAR     78  50  37 NW9       29.88S
OMAK           PTCLDY    73  48  41 N12       29.88R

...SOUTHERN BRITISH COLUMBIA...

CITY           SKY/WX    TMP DP  RH WIND       PRES   REMARKS
PENTICTON      MOCLDY    66  54  63 VRB2      29.90S
CRANBROOK      MOCLDY    63  48  59 W6        29.99S

...WESTERN MONTANA...

CITY           SKY/WX    TMP DP  RH WIND       PRES   REMARKS
MISSOULA       CLEAR     61  45  55 CALM      30.02R

...NEIGHBORING CITIES...

CITY           SKY/WX    TMP DP  RH WIND       PRES   REMARKS
SEATTLE        CLEAR     64  54  69 NW3       29.96S
CALGARY        PTCLDY    59  54  82 VRB2      29.96F



USA.gov is the U.S. government's official web portal to all federal, state and local government web resources and services.